Погода в Кандле

Индия     23°04′01″N   70°07′53″E
темп.,
°C
ветер,
м/с
пор.,
м/с
влажн.,
%
обл.,
%
осадки,
мм/ч
давл.,
гПа
погр.,
м
24 октября, вс
вс2423:30+28зюз785579 0.0 10121420
02:30+28зюз795997 0.0 10111204
05:30+27з686128 0.0 1011970
08:30+27зюз676017 0.0 10131124
11:30+30юз66470 0.1 10131664
14:30+30юз87470 0.0 10111615
17:30+30юз77430 0.0 10111092
20:30+28зюз67460 0.0 1013470
25 октября, пн
пн2523:30+27зюз67510 0.0 1013608
02:30+26з45560 0.0 1012587
05:30+25з34590 0.0 1012271
08:30+26з22570 0.0 1014468
11:30+29юз44470 0.0 10141002
14:30+30ююз44410 0.0 1012960
17:30+30зюз43360 0.0 1011480
20:30+29зсз33390 0.0 1012279
26 октября, вт
вт2623:30+28з44470 0.0 1012241
02:30+27зсз224899 0.0 1011173
05:30+27сз34475 0.0 1011199
08:30+27ссз34530 0.0 1013273
11:30+31ссв23370 0.0 10131433
14:30+33зсз133147 0.0 10102446
17:30+32с6632100 0.0 10101531
20:30+31ссв57343 0.0 1012395
27 октября, ср
ср2723:30+30всв35361 0.0 1012174
02:30+28ююв45510 0.0 1011200
05:30+28з12547 0.0 1012115
08:30+28с34430 0.0 1014234
11:30+32ссв44320 0.0 10141350
14:30+34ссв242839 0.0 10112740
17:30+33ссв772741 0.0 10111743
20:30+31с57330 0.0 1012251
28 октября, чт
чт2823:30+30ссв46340 0.0 1012167
02:30+29ююв333873 0.0 1012176
05:30+28всв34418 0.0 1012180
08:30+28в45350 0.0 1015307
11:30+32вюв34290 0.0 10141089
14:30+34всв24210 0.0 10112799
17:30+33всв87180 0.0 10111958
20:30+31ссв45250 0.0 1013281